Location: Pianadetto
(44.4000°N, 10.1000°E)
Time: 02:52:39
(UTC+00:00)

ADEOS II - Pass Details

Date: 26 May 2022
Orbit: 798 x 801 km, 98.6° (Epoch: 26 June)

Event Time Altitude Azimuth Distance (km) Brightness Sun altitude
Rises 01:37:52 0° 12° (NNE) 3,317 6.6 -17.0°
Reaches altitude 10° 01:40:12 10° 12° (NNE) 2,382 5.6 -16.7°
Maximum altitude 01:45:28 82° 287° (WNW) 813 2.0 -16.2°
Enters shadow 01:48:43 24° 201° (SSW) 1,600 3.1 -15.9°
